Regional Weather Roundup
Issued by NWS State College, PA

Home | Current Version | Previous Version | Graphics & Text | Print | Product List | Glossary Off
Versions: 1 2 3 4 5 6 7 8 9 10 11 12 13 14 15 16 17 18 19 20 21 22 23 24 25 26 27 28 29 30 31 32 33 34 35 36 37 38 39 40 41 42 43 44 45 46 47 48 49 50

000
ASUS41 KCTP 272303
RWRCTP

REGIONAL WEATHER ROUNDUP
NATIONAL WEATHER SERVICE STATE COLLEGE PA
700 PM EDT FRI MAY 27 2016

Note: "fair" indicates few or no clouds below 12,000 feet with no
significant weather and/or obstructions to visibility.

* = STATION THAT DOES NOT REPORT PRECIPITATION /E.G. RAIN...SNOW...ETC/
    THUNDER OR FOG.

PAZ002>004-007>009-013>016-020>023-029>032-280000-
WESTERN PENNSYLVANIA

CITY           SKY/WX    TMP DP  RH WIND       PRES   REMARKS
ERIE           MOSUNNY   78  63  59 W3        30.00F
MEADVILLE      MOSUNNY   79  60  52 SW6       30.03S
FRANKLIN*      MOSUNNY   81  59  47 SW6       30.06S
NEW CASTLE     FAIR      85  63  47 W5        30.01F
BEAVER COUNTY  MOSUNNY   82  63  51 W3        30.02F
BUTLER*        MOSUNNY   81  64  57 W3        30.05S
PITTSBURGH INT PTSUNNY   85  60  42 SW8       30.01F
PITTSBURGH     MOSUNNY   84  59  42 S9        30.02S
INDIANA*       MOSUNNY   82  64  54 SW5       30.07R
LATROBE        MOSUNNY   84  64  51 SW7       30.04S
WASHINGTON CO* SUNNY     82  63  51 SW6       30.04S
$$

PAZ004>006-010>012-017>019-024>028-033>037-041-042-045-046-049>053-280000-
CENTRAL PENNSYLVANIA

CITY           SKY/WX    TMP DP  RH WIND       PRES   REMARKS
BRADFORD       MOSUNNY   79  58  48 SW3       30.06S
DUBOIS         SUNNY     77  61  57 SW8       30.05S
CLEARFIELD     MOSUNNY   83  60  45 SW6       30.04S
JOHNSTOWN      MOSUNNY   80  57  45 W6        30.09R
ALTOONA        MOSUNNY   76  66  71 S9        30.07R
STATE COLLEGE  SUNNY     81  64  57 S9        30.04R
WILLIAMSPORT   MOSUNNY   81  67  62 E7        29.98R
SELINSGROVE    MOSUNNY   87  65  47 SW6       30.00S
FT INDIANTOWN  NOT AVBL
CAPITAL CITY   PTSUNNY   85  65  51 W9        30.01R
HARRISBURG     PTSUNNY   82  67  60 SW6       30.00R
YORK           CLOUDY    83  63  50 SW3       30.02R
$$

PAZ038>040-043-044-047-048-054-055-060>062-067>071-280000-
EASTERN PENNSYLVANIA

CITY           SKY/WX    TMP DP  RH WIND       PRES   REMARKS
SCRANTON       MOSUNNY   84  63  49 SW12      30.01S
MOUNT POCONO   MOSUNNY   78  62  57 SW9       30.07S
ALLENTOWN      SUNNY     87  65  47 SW9       30.00S
QUAKERTOWN*    CLEAR     84  68  58 SW8       30.03R
READING        MOSUNNY   86  67  52 SW10      30.00R
LANCASTER      MOSUNNY   83  68  60 S9        30.01S
COATESVILLE    CLOUDY    82  66  57 VRB5      30.06R
POTTSTOWN      SUNNY     85  67  54 S8        30.04R
BLUE BELL      MOSUNNY   84  66  54 SW8       30.02R
DOYLESTOWN     SUNNY     84  64  50 VRB7      30.01S
WILLOW GROVE   NOT AVBL
NORTH PHILA    CLOUDY    88  66  48 SW9       30.02S
PHILADELPHIA   PTSUNNY   87  64  46 SW9       30.02S
$$




USA.gov is the U.S. government's official web portal to all federal, state and local government web resources and services.